Location: Biharia
(46.4333°N, 22.8000°E)
Time: 11:25:29
(UTC+00:00)

Cosmos 1727 Rocket - Pass Details

Date: 16 October 2021
Orbit: 960 x 997 km, 82.9° (Epoch: 02 December)

Event Time Altitude Azimuth Distance (km) Brightness Sun altitude
Rises 16:26:51 0° 352° (N) 3,687 7.1 -8.8°
Reaches altitude 10° 16:29:23 10° 353° (N) 2,730 6.4 -9.2°
Maximum altitude 16:35:39 81° 81° (E) 985 4.0 -10.3°
Drops below altitude 10° 16:41:49 10° 169° (S) 2,692 6.2 -11.3°
Sets 16:44:18 0° 171° (S) 3,632 6.9 -11.8°
